Retour au catalogue

JILIN-1-03

ActifScienceSSO
NORAD 41914·PAYLOAD·🇨🇳 China

Lancé Jan 9, 2017 depuis Jiuquan Satellite Launch Center

Loading…

Prochains Passages (prochaines 24 heures)

TLE

FraisSource: Space-Track

Époque: Sep 14, 2026, 22:24 UTC

1 41914U 17002B   26257.93341839  .00013165  00000-0  29476-3 0  9998
2 41914  97.1977 263.8963 0005114 182.1063 178.0165 15.43565194535699

Suivez JILIN-1-03 en temps réel avec AllMySat

Download on the App Store